Hourly Data Report for May 22, 2021

ST-JOVITE
QUEBEC
Current Station Operator: ECCC - MSC

46°04'49.000" N
74°33'21.000" W
238.50 m
703GDKB
71376
WJT

Download Data

Hourly Data (May 2021)
Hourly Data Report for May 22, 2021
TIME
LST
Temp Definition
°C
Dew Point Definition
°C
Rel Hum Definition
%
Precip. Amount Definition
mm

Wind Dir Definition
10's deg

Wind Spd Definition
km/h
Visibility Definition
km
Stn Press Definition
kPa
Hmdx Definition


Wind Chill Definition


Weather Definition


00:00 18.3 15.7 85 0.0 0 1   99.41     LegendNANA
01:00 17.5 15.4 87 0.0 6 2   99.37     LegendNANA
02:00 16.8 15.1 90 0.0 7 1   99.33     LegendNANA
03:00 16.2 14.9 92 0.0 7 1   99.28     LegendNANA
04:00 15.8 14.7 93 0.0 7 1   99.24     LegendNANA
05:00 15.8 14.8 94 0.0 7 2   99.25     LegendNANA
06:00 16.7 15.6 94 0.0   0   99.27     LegendNANA
07:00 18.5 17.2 92 0.0   0   99.26     LegendNANA
08:00 20.4 18.4 88 0.0   0   99.23 27   LegendNANA
09:00 21.0 17.0 78 0.0 27 2   99.18 26   LegendNANA
10:00 22.1 17.1 73 0.0 26 2   99.13 27   LegendNANA
11:00 24.6 17.3 64 0.0 25 8   99.06 30   LegendNANA
12:00 26.6 16.5 54 0.0 27 8   98.98 32   LegendNANA
13:00 26.4 16.8 55 0.0 26 4   98.93 32   LegendNANA
14:00 27.0 17.6 57 0.0 27 4   98.86 33   LegendNANA
15:00 25.6 17.2 60 0.0 27 3   98.79 31   LegendNANA
16:00 25.0 17.7 64 0.0 28 1   98.75 31   LegendNANA
17:00 21.5 19.3 87 0.0 22 3   98.79 29   LegendNANA
18:00 22.4 19.3 83 0.0 25 4   98.73 29   LegendNANA
19:00 21.4 19.7 90 0.0 19 1   98.70 29   LegendNANA
20:00 19.5 18.5 94 0.0 0 1   98.70     LegendNANA
21:00 18.2 17.5 96 0.0   0   98.69     LegendNANA
22:00 17.1 16.5 97 0.0 0 1   98.64     LegendNANA
23:00 16.1 15.7 97 0.0   0   98.56     LegendNANA

Notes on Data Quality.

Legend

  • E = Estimated
  • M = Missing
  • NA = Not Available*
  • [empty] = Indicates an unobserved value
Date modified: